Weather History for Shreveport Downtown, LA

Change the Weather History Date:

Tuesday, May 28, 2013

  Actual Average (KSHV) Record (KSHV)
Temperature  
Mean Temperature 78 °F 76 °F  
Max Temperature 88 °F 87 °F 97 °F (1886)
Min Temperature 70 °F 66 °F 46 °F (1961)
Degree Days  
Heating Degree Days 0 0  
Month to date heating degree days 5  
Since 1 July heating degree days 2224  
Cooling Degree Days 14 11  
Month to date cooling degree days 228  
Year to date cooling degree days 363  
Growing Degree Days 28 (Base 50)    
Moisture  
Dew Point 66 °F    
Average Humidity 68    
Maximum Humidity 93    
Minimum Humidity 43    
Precipitation  
Precipitation 0.00 in 0.15 in 2.42 in (1952)
Month to date precipitation 4.47  
Year to date precipitation 21.75  
Snow  
Snow 0.00 in - - ()
Month to date snowfall  
Since 1 July snowfall  
Snow Depth -    
Sea Level Pressure  
Sea Level Pressure 29.93 in    
Wind  
Wind Speed 11 mph (South)    
Max Wind Speed 20 mph    
Max Gust Speed 28 mph    
Visibility 10 miles    
Events      
T = Trace of Precipitation, MM = Missing Value Source: NWS Daily Summary

Daily Weather History Graph

Daily Weather History Graph

Search for Another Location

Airport:

Trip Planner

Search our weather history database for the weather conditions in past years. The results will help you decide how hot, cold, wet, or windy it might be!

Date:

Astronomy

May. 28, 2013 Rise Set
Actual Time 6:09 AM CDT 8:15 PM CDT
Civil Twilight 5:41 AM CDT 8:43 PM CDT
Nautical Twilight 5:07 AM CDT 9:17 PM CDT
Astronomical Twilight 4:31 AM CDT 9:53 PM CDT
Moon 11:46 PM CDT (5/28) 9:53 AM CDT (5/28)
Length of Visible Light 15h 01m
Length of Day
14h 05m
Waning Gibbous, 82% of the Moon is Illuminated
May 28
Waning Gibbous
May 31
Last Quarter
Jun 8
New
Jun 16
First Quarter
Jun 23
Full

Hourly Weather History & Observations

Time (CDT) Temp. Heat Index Dew Point Humidity Pressure Visibility Wind Dir Wind Speed Gust Speed Precip Events Conditions
12:53 AM 73.9 °F - 66.9 °F 79% 29.94 in 10.0 mi SSE 12.7 mph - N/A   Clear
1:53 AM 73.0 °F - 66.9 °F 81% 29.93 in 10.0 mi South 10.4 mph - N/A   Clear
2:53 AM 72.0 °F - 66.9 °F 84% 29.92 in 10.0 mi South 9.2 mph - N/A   Clear
3:53 AM 71.1 °F - 66.9 °F 87% 29.92 in 10.0 mi SSE 8.1 mph - N/A   Clear
4:53 AM 70.0 °F - 68.0 °F 93% 29.92 in 9.0 mi SSE 11.5 mph - N/A   Partly Cloudy
5:12 AM 71.6 °F - 68.0 °F 88% 29.93 in 9.0 mi South 8.1 mph - N/A   Mostly Cloudy
5:42 AM 71.6 °F - 68.0 °F 88% 29.93 in 10.0 mi SSE 8.1 mph - N/A   Mostly Cloudy
5:53 AM 71.1 °F - 68.0 °F 90% 29.94 in 10.0 mi South 8.1 mph - N/A   Mostly Cloudy
6:00 AM 71.6 °F - 68.0 °F 88% 29.95 in 10.0 mi South 8.1 mph - N/A   Scattered Clouds
6:23 AM 71.6 °F - 68.0 °F 88% 29.96 in 8.0 mi South 8.1 mph - N/A   Mostly Cloudy
6:53 AM 72.0 °F - 69.1 °F 91% 29.96 in 9.0 mi SSE 5.8 mph - N/A   Overcast
7:53 AM 73.9 °F - 69.1 °F 85% 29.96 in 10.0 mi South 9.2 mph - N/A   Overcast
8:53 AM 75.9 °F - 68.0 °F 76% 29.97 in 10.0 mi SSW 11.5 mph 19.6 mph N/A   Mostly Cloudy
9:07 AM 77.0 °F - 68.0 °F 74% 29.97 in 10.0 mi SSW 13.8 mph 20.7 mph N/A   Scattered Clouds
9:42 AM 80.6 °F 83.2 °F 68.0 °F 65% 29.97 in 10.0 mi SSW 13.8 mph 21.9 mph N/A   Mostly Cloudy
9:53 AM 81.0 °F 83.8 °F 68.0 °F 65% 29.97 in 10.0 mi South 13.8 mph 19.6 mph N/A   Mostly Cloudy
10:05 AM 80.6 °F 82.7 °F 66.2 °F 61% 29.98 in 10.0 mi South 19.6 mph 27.6 mph N/A   Scattered Clouds
10:53 AM 82.0 °F 84.1 °F 66.0 °F 58% 29.96 in 10.0 mi SSW 16.1 mph 24.2 mph N/A   Clear
11:53 AM 84.0 °F 85.4 °F 64.0 °F 51% 29.96 in 10.0 mi South 16.1 mph 21.9 mph N/A   Partly Cloudy
12:53 PM 86.0 °F 87.6 °F 64.9 °F 49% 29.96 in 10.0 mi South 13.8 mph 23.0 mph N/A   Partly Cloudy
1:53 PM 86.0 °F 87.3 °F 64.0 °F 48% 29.94 in 10.0 mi SSE 13.8 mph 21.9 mph N/A   Scattered Clouds
2:53 PM 86.0 °F 86.8 °F 63.0 °F 46% 29.93 in 10.0 mi South 9.2 mph - N/A   Scattered Clouds
3:53 PM 87.1 °F 87.8 °F 63.0 °F 44% 29.92 in 10.0 mi South 17.3 mph 20.7 mph N/A   Scattered Clouds
4:53 PM 87.1 °F 88.3 °F 64.0 °F 46% 29.90 in 10.0 mi SSE 10.4 mph - N/A   Partly Cloudy
5:53 PM 87.1 °F 87.5 °F 62.1 °F 43% 29.88 in 10.0 mi South 12.7 mph 19.6 mph N/A   Clear
6:53 PM 86.0 °F 86.8 °F 63.0 °F 46% 29.87 in 10.0 mi SSE 11.5 mph - N/A   Clear
7:53 PM 82.9 °F 84.4 °F 64.0 °F 53% 29.88 in 10.0 mi South 8.1 mph - N/A   Scattered Clouds
8:53 PM 82.0 °F 83.8 °F 64.9 °F 56% 29.88 in 10.0 mi South 11.5 mph - N/A   Scattered Clouds
9:53 PM 80.1 °F 82.1 °F 66.0 °F 62% 29.88 in 10.0 mi South 11.5 mph - N/A   Clear
10:53 PM 78.1 °F - 66.9 °F 68% 29.91 in 10.0 mi SSE 9.2 mph 17.3 mph N/A   Clear
11:53 PM 77.0 °F - 66.0 °F 69% 29.91 in 10.0 mi South 11.5 mph - N/A   Clear